Flag for Romania Weather past 2 weeks in Cluj-Napoca, Romania

Now
66 °F

Passing clouds.


Feels Like: 66 °F
Forecast: 58 / 80 °F
Wind: 5 mph from West

Location: Cluj Airport-Napoca

Current Time: Jul 3, 2015 at 9:30:51 AM

Latest Report: Jul 3, 2015 at 9:00 AM


Visibility: N/A

Pressure: 30.33 "Hg

Humidity: 68%

Dew point: 55 °F

Location of Cluj-NapocaLocation

Historic Weather in Cluj-Napoca — Graph

°F

Cluj-Napoca temperature yesterday

Maximum temperature yesterday: 79 °F (at 2:30 PM)
Minimum temperature yesterday: 59 °F (at 5:00 AM)
Average temperature yesterday: 71 °F

Past Weeks' High & Low Weather Summary

 TemperatureHumidityPressure
High79 °F (Jun 23, 5:00 PM)100% (Jun 20, 6:30 AM)30.33 "Hg (Jun 20, 6:30 AM)
Low48 °F (Jun 23, 5:00 AM)33% (Jun 19, 3:30 PM)29.80 "Hg (Jun 19, 4:00 PM)
Average65 °F74%30.02 "Hg
* Reported Jun 18 8:00 AM — Jul 3 8:30 AM, Cluj-Napoca, Weather by CustomWeather, © 2015

Note: Actual official high and low records may vary slightly from our data, if they occured in-between our weather recording intervals... More about our weather records

Advertising

Cluj-Napoca weather history for previous 24 hours

 ConditionsComfort  
Time TempWeatherWind HumidityBarometerVisibility
8:30 AM
Fri, Jul 3
64 °FSunny.7 mph73%30.33 "Hg10 mi
8:00 AM63 °FSunny.5 mph77%30.33 "Hg10 mi
7:30 AM59 °FSunny.5 mph82%30.33 "Hg10 mi
7:00 AM57 °FSunny.6 mph88%30.33 "Hg10 mi
6:30 AM57 °FClear.3 mph88%30.30 "Hg10 mi
6:00 AM55 °FClear.3 mph94%30.30 "Hg10 mi
5:30 AM55 °FClear.3 mph94%30.30 "Hg10 mi
5:00 AM57 °FClear.5 mph88%30.30 "Hg10 mi
3:00 AM59 °FClear.5 mph88%30.30 "Hg10 mi
2:00 AM59 °FClear.1 mph94%30.30 "Hg10 mi
1:00 AM63 °FPassing clouds.2 mph83%30.30 "HgN/A
12:00 AM64 °FPassing clouds.No wind73%30.27 "HgN/A
11:30 PM
Thu, Jul 2
64 °FClear.No wind73%30.27 "Hg10 mi
11:00 PM66 °FClear.1 mph68%30.27 "Hg10 mi
10:30 PM66 °FClear.2 mph68%30.24 "Hg10 mi
10:00 PM66 °FSunny.2 mph68%30.24 "Hg10 mi
9:00 PM73 °FSunny.7 mph50%30.21 "Hg10 mi
8:30 PM75 °FSunny.7 mph50%30.21 "Hg10 mi
8:00 PM77 °FSunny.8 mph44%30.21 "Hg10 mi
7:30 PM77 °FSunny.8 mph44%30.21 "Hg10 mi
7:00 PM79 °FPassing clouds.10 mph39%30.21 "HgN/A
6:30 PM79 °FPassing clouds.10 mph42%30.21 "HgN/A
6:00 PM79 °FPassing clouds.8 mph48%30.18 "HgN/A
5:30 PM79 °FPassing clouds.12 mph42%30.21 "HgN/A
5:00 PM79 °FPassing clouds.12 mph48%30.18 "HgN/A
4:30 PM79 °FScattered clouds.10 mph45%30.18 "HgN/A
4:00 PM79 °FScattered clouds.9 mph45%30.21 "HgN/A
3:30 PM79 °FScattered clouds.9 mph42%30.21 "HgN/A
3:00 PM79 °FPassing clouds.9 mph42%30.21 "HgN/A
2:30 PM79 °FPassing clouds.10 mph39%30.21 "HgN/A
2:00 PM77 °FPassing clouds.12 mph42%30.21 "HgN/A
1:30 PM77 °FPassing clouds.10 mph42%30.21 "HgN/A
1:00 PM77 °FPassing clouds.10 mph44%30.21 "HgN/A
12:30 PM77 °FPassing clouds.10 mph51%30.21 "HgN/A
12:00 PM75 °FPassing clouds.8 mph54%30.21 "HgN/A
11:30 AM75 °FPassing clouds.9 mph54%30.21 "HgN/A
11:00 AM73 °FPassing clouds.9 mph61%30.21 "HgN/A
10:30 AM73 °FPassing clouds.7 mph57%30.21 "HgN/A
10:00 AM72 °FSunny.3 mph65%30.21 "Hg10 mi
9:30 AM70 °FSunny.1 mph69%30.21 "Hg10 mi
9:00 AM68 °FPassing clouds.2 mph69%30.21 "HgN/A
Weather by CustomWeather, © 2015

See weather overviewHow to use our weather pages